When you browse on this site, cookies collect data to enhance your experience and personalize the content and advertising you see.
Visit our Privacy Policy to learn more. By continuing to use the site, you agree to this use of cookies and data.
  • In Hungary
  • List of Countries
  • For 7 days
  • Water Temperature
  • Weather Map
  • News
  • Weather Widgets
  • user-avatar
    Login

    Hourly Weather Brzeg

    Today, 10 December, Tuesday

    Time Temperature Precipitation Wind Pressure Humidity
    00:00 +4°C° 0 mm 4 mps 742 mmHg 84%
    01:00 +4°C° 0 mm 3 mps 743 mmHg 87%
    02:00 +4°C° 0.1 mm 3 mps 744 mmHg 87%
    03:00 +4°C° 0.1 mm 4 mps 744 mmHg 86%
    04:00 +3°C° 0.1 mm 5 mps 745 mmHg 86%
    05:00 +3°C° 0 mm 5 mps 746 mmHg 86%
    06:00 +2°C° 0 mm 5 mps 747 mmHg 85%
    07:00 +1°C° 0 mm 5 mps 749 mmHg 86%
    08:00 +1°C° 0 mm 6 mps 749 mmHg 82%
    09:00 +2°C° 0 mm 7 mps 750 mmHg 78%
    10:00 +2°C° 0 mm 7 mps 751 mmHg 74%
    11:00 +2°C° 0 mm 7 mps 751 mmHg 70%
    12:00 +2°C° 0 mm 7 mps 752 mmHg 66%
    13:00 +2°C° 0 mm 6 mps 753 mmHg 63%
    14:00 +2°C° 0 mm 5 mps 753 mmHg 65%
    15:00 +1°C° 0 mm 5 mps 753 mmHg 68%
    16:00 0°C° 0 mm 4 mps 754 mmHg 71%
    17:00 +1°C° 0 mm 3 mps 754 mmHg 75%
    18:00 0°C° 0 mm 3 mps 755 mmHg 80%
    19:00 0°C° 0 mm 3 mps 755 mmHg 84%
    20:00 -1°C° 0 mm 2 mps 755 mmHg 86%
    21:00 -1°C° 0 mm 2 mps 755 mmHg 88%
    22:00 -1°C° 0 mm 2 mps 755 mmHg 90%
    23:00 +1°C° 0 mm 1 mps 755 mmHg 88%

    Tomorrow, 11 December, Wednesday

    Time Temperature Precipitation Wind Pressure Humidity
    00:00 0°C° 0 mm 1 mps 755 mmHg 86%
    01:00 0°C° 0 mm 1 mps 755 mmHg 84%
    02:00 -2°C° 0 mm 2 mps 754 mmHg 81%
    03:00 -2°C° 0 mm 2 mps 753 mmHg 79%
    04:00 -2°C° 0 mm 2 mps 753 mmHg 77%
    05:00 -2°C° 0 mm 3 mps 752 mmHg 76%
    06:00 -2°C° 0 mm 3 mps 752 mmHg 76%
    07:00 -3°C° 0 mm 4 mps 751 mmHg 75%
    08:00 -2°C° 0 mm 4 mps 751 mmHg 68%
    09:00 -1°C° 0 mm 5 mps 750 mmHg 61%
    10:00 0°C° 0 mm 5 mps 750 mmHg 54%
    11:00 0°C° 0 mm 5 mps 749 mmHg 50%
    12:00 +1°C° 0 mm 4 mps 749 mmHg 46%
    13:00 +3°C° 0 mm 4 mps 748 mmHg 42%
    14:00 0°C° 0 mm 4 mps 748 mmHg 47%
    15:00 -1°C° 0 mm 4 mps 747 mmHg 52%
    16:00 -1°C° 0 mm 3 mps 746 mmHg 57%
    17:00 -1°C° 0 mm 3 mps 746 mmHg 57%
    18:00 -2°C° 0 mm 3 mps 745 mmHg 57%
    19:00 -2°C° 0 mm 3 mps 745 mmHg 57%
    20:00 -2°C° 0 mm 3 mps 745 mmHg 57%
    21:00 -2°C° 0 mm 3 mps 744 mmHg 57%
    22:00 -2°C° 0 mm 3 mps 744 mmHg 57%
    23:00 -2°C° 0 mm 3 mps 743 mmHg 59%

    Day after tomorrow, 12 December, Thursday

    Time Temperature Precipitation Wind Pressure Humidity
    00:00 -2°C° 0 mm 3 mps 743 mmHg 62%
    01:00 -4°C° 0 mm 3 mps 743 mmHg 65%
    02:00 -3°C° 0 mm 2 mps 742 mmHg 66%
    03:00 -3°C° 0 mm 2 mps 742 mmHg 66%
    04:00 -3°C° 0 mm 2 mps 741 mmHg 67%
    05:00 -3°C° 0 mm 2 mps 741 mmHg 69%
    06:00 -3°C° 0 mm 2 mps 741 mmHg 71%
    07:00 -3°C° 0 mm 2 mps 741 mmHg 72%
    08:00 -2°C° 0 mm 3 mps 741 mmHg 71%
    09:00 -2°C° 0 mm 3 mps 741 mmHg 70%
    10:00 -1°C° 0 mm 3 mps 741 mmHg 68%
    11:00 0°C° 0 mm 3 mps 741 mmHg 66%
    12:00 0°C° 0 mm 3 mps 741 mmHg 63%
    13:00 +2°C° 0 mm 2 mps 741 mmHg 61%
    14:00 +1°C° 0 mm 2 mps 740 mmHg 67%
    15:00 -1°C° 0 mm 2 mps 740 mmHg 73%
    16:00 +1°C° 0 mm 1 mps 740 mmHg 79%
    17:00 +1°C° 0 mm 1 mps 740 mmHg 83%
    18:00 0°C° 0 mm 1 mps 739 mmHg 86%
    19:00 0°C° 0 mm 1 mps 739 mmHg 90%
    20:00 0°C° 0 mm 1 mps 739 mmHg 89%
    21:00 -1°C° 0 mm 2 mps 738 mmHg 88%
    22:00 -1°C° 0 mm 2 mps 738 mmHg 87%
    23:00 -1°C° 0 mm 2 mps 737 mmHg 87%

    13 December, Friday

    Time Temperature Precipitation Wind Pressure Humidity
    00:00 -1°C° 0 mm 2 mps 737 mmHg 87%
    01:00 -2°C° 0 mm 2 mps 736 mmHg 87%
    02:00 -2°C° 0 mm 3 mps 735 mmHg 87%
    03:00 -2°C° 0 mm 3 mps 734 mmHg 87%
    04:00 -2°C° 0 mm 3 mps 733 mmHg 87%
    05:00 -3°C° 0 mm 4 mps 732 mmHg 86%
    06:00 -3°C° 0 mm 4 mps 732 mmHg 85%
    07:00 -2°C° 0 mm 5 mps 731 mmHg 84%
    08:00 -3°C° 0 mm 6 mps 730 mmHg 79%
    09:00 -2°C° 0 mm 6 mps 730 mmHg 74%
    10:00 -1°C° 0 mm 7 mps 729 mmHg 69%
    11:00 0°C° 0 mm 7 mps 729 mmHg 68%
    12:00 0°C° 0 mm 7 mps 729 mmHg 66%
    13:00 +2°C° 0 mm 6 mps 728 mmHg 65%
    14:00 +1°C° 0 mm 6 mps 728 mmHg 68%
    15:00 +1°C° 0 mm 5 mps 728 mmHg 72%
    16:00 0°C° 0 mm 4 mps 728 mmHg 75%
    17:00 0°C° 0 mm 4 mps 729 mmHg 77%
    18:00 -1°C° 0 mm 4 mps 729 mmHg 79%
    19:00 0°C° 0 mm 3 mps 730 mmHg 81%
    20:00 0°C° 0 mm 3 mps 730 mmHg 82%
    21:00 -1°C° 0 mm 4 mps 730 mmHg 82%
    22:00 -1°C° 0 mm 4 mps 731 mmHg 83%
    23:00 -1°C° 0 mm 4 mps 731 mmHg 83%

    14 December, Saturday

    Time Temperature Precipitation Wind Pressure Humidity
    00:00 -1°C° 0 mm 4 mps 731 mmHg 83%
    01:00 -1°C° 0 mm 4 mps 732 mmHg 83%
    02:00 -1°C° 0 mm 4 mps 732 mmHg 82%
    03:00 -1°C° 0 mm 4 mps 732 mmHg 81%
    04:00 -1°C° 0 mm 5 mps 732 mmHg 80%
    05:00 -1°C° 0 mm 5 mps 732 mmHg 81%
    06:00 -1°C° 0 mm 5 mps 733 mmHg 82%
    07:00 -1°C° 0 mm 5 mps 733 mmHg 82%
    08:00 0°C° 0 mm 5 mps 733 mmHg 80%
    09:00 +1°C° 0 mm 5 mps 733 mmHg 77%
    10:00 +2°C° 0 mm 6 mps 733 mmHg 75%
    11:00 +3°C° 0.1 mm 6 mps 733 mmHg 74%
    12:00 +3°C° 0.1 mm 6 mps 733 mmHg 73%
    13:00 +3°C° 0.1 mm 7 mps 733 mmHg 72%
    14:00 +3°C° 0 mm 7 mps 733 mmHg 75%
    15:00 +4°C° 0 mm 7 mps 733 mmHg 77%
    16:00 +4°C° 0 mm 7 mps 734 mmHg 80%
    17:00 +4°C° 0 mm 6 mps 734 mmHg 78%
    18:00 +3°C° 0 mm 6 mps 735 mmHg 76%
    19:00 +3°C° 0 mm 6 mps 736 mmHg 75%
    20:00 +3°C° 0.1 mm 5 mps 736 mmHg 78%
    21:00 +5°C° 0.1 mm 5 mps 736 mmHg 80%
    22:00 +5°C° 0.1 mm 5 mps 737 mmHg 83%
    23:00 +5°C° 0 mm 5 mps 738 mmHg 81%

    15 December, Sunday

    Time Temperature Precipitation Wind Pressure Humidity
    00:00 +4°C° 0 mm 6 mps 738 mmHg 79%
    01:00 +4°C° 0 mm 6 mps 739 mmHg 77%
    02:00 +3°C° 0 mm 6 mps 740 mmHg 78%
    03:00 +3°C° 0 mm 6 mps 740 mmHg 79%
    04:00 +2°C° 0 mm 5 mps 741 mmHg 80%
    05:00 +2°C° 0 mm 5 mps 741 mmHg 82%
    06:00 +3°C° 0 mm 4 mps 741 mmHg 83%
    07:00 +3°C° 0 mm 4 mps 742 mmHg 84%
    08:00 +4°C° 0 mm 4 mps 741 mmHg 82%
    09:00 +4°C° 0 mm 4 mps 741 mmHg 79%
    10:00 +5°C° 0 mm 5 mps 741 mmHg 77%
    11:00 +5°C° 0.1 mm 6 mps 741 mmHg 76%
    12:00 +6°C° 0.1 mm 7 mps 740 mmHg 75%
    13:00 +7°C° 0.1 mm 8 mps 739 mmHg 74%
    14:00 +7°C° 0 mm 8 mps 740 mmHg 73%
    15:00 +7°C° 0 mm 8 mps 740 mmHg 72%
    16:00 +7°C° 0 mm 8 mps 740 mmHg 71%
    17:00 +8°C° 0.1 mm 7 mps 742 mmHg 67%
    18:00 +6°C° 0.1 mm 7 mps 743 mmHg 64%
    19:00 +7°C° 0.1 mm 6 mps 744 mmHg 61%
    20:00 +6°C° 0 mm 5 mps 745 mmHg 63%
    21:00 +5°C° 0 mm 4 mps 746 mmHg 64%
    22:00 +4°C° 0 mm 4 mps 747 mmHg 66%
    23:00 +4°C° 0 mm 4 mps 747 mmHg 68%
    Show more